Time,TemperatureF,DewpointF,PressureIn,WindDirection,WindDirectionDegrees,WindSpeedMPH,WindSpeedGustMPH,Humidity,HourlyPrecipIn,Conditions,Clouds,dailyrainin,SoftwareType,DateUTC
2013-06-07 00:01:00,70.1,69.2,29.85,ESE,105,0.0,0.0,97,0.00,,-RA,0.00,VWS V14.01,2013-06-07 04:01:00,
2013-06-07 00:05:00,70.1,69.2,29.85,ESE,105,0.0,0.0,97,0.00,,-RA,0.00,VWS V14.01,2013-06-07 04:05:00,
2013-06-07 00:10:00,70.1,69.2,29.84,ESE,105,0.0,0.0,97,0.00,,-RA,0.00,VWS V14.01,2013-06-07 04:10:00,
2013-06-07 00:15:00,70.1,69.2,29.84,ESE,105,0.0,0.0,97,0.00,,-RA,0.00,VWS V14.01,2013-06-07 04:15:00,
2013-06-07 00:20:00,70.0,69.1,29.84,ESE,105,0.0,0.0,97,0.00,,-RA,0.00,VWS V14.01,2013-06-07 04:20:00,
2013-06-07 00:25:00,70.0,69.1,29.84,ESE,105,0.0,0.0,97,0.00,,-RA,0.00,VWS V14.01,2013-06-07 04:25:00,
2013-06-07 00:35:00,69.9,69.0,29.84,ESE,105,0.0,0.0,97,0.00,,-RA,0.00,VWS V14.01,2013-06-07 04:35:00,
2013-06-07 00:40:00,69.9,69.0,29.84,ESE,105,0.0,0.0,97,0.00,,-RA,0.00,VWS V14.01,2013-06-07 04:40:00,
2013-06-07 00:45:00,69.9,69.0,29.84,ESE,105,0.0,0.0,97,0.00,,-RA,0.00,VWS V14.01,2013-06-07 04:45:00,
2013-06-07 00:55:00,69.9,69.0,29.84,ESE,105,0.0,0.0,97,0.00,,-RA,0.00,VWS V14.01,2013-06-07 04:55:00,
2013-06-07 01:01:00,69.9,69.0,29.84,ESE,105,0.0,0.0,97,0.00,,-RA,0.00,VWS V14.01,2013-06-07 05:01:00,
2013-06-07 01:05:00,69.9,69.0,29.83,ESE,105,0.0,0.0,97,0.00,,-RA,0.00,VWS V14.01,2013-06-07 05:05:00,
2013-06-07 01:10:00,69.9,69.0,29.83,ESE,105,0.0,0.0,97,0.00,,-RA,0.00,VWS V14.01,2013-06-07 05:10:00,
2013-06-07 01:15:00,69.9,69.0,29.83,ESE,105,0.0,0.0,97,0.00,,-RA,0.00,VWS V14.01,2013-06-07 05:15:00,
2013-06-07 01:20:00,69.9,69.0,29.83,ESE,105,0.0,0.0,97,0.00,,-RA,0.00,VWS V14.01,2013-06-07 05:20:00,
2013-06-07 01:25:00,69.9,69.0,29.83,ESE,105,0.0,0.0,97,0.00,,-RA,0.00,VWS V14.01,2013-06-07 05:25:00,
2013-06-07 01:30:00,69.9,69.0,29.83,ESE,105,0.0,0.0,97,0.00,,-RA,0.00,VWS V14.01,2013-06-07 05:30:00,
2013-06-07 01:35:00,69.9,69.0,29.83,ESE,105,0.0,0.0,97,0.01,,-RA,0.01,VWS V14.01,2013-06-07 05:35:00,
2013-06-07 01:40:00,69.9,69.0,29.83,ESE,105,0.0,0.0,97,0.01,,-RA,0.01,VWS V14.01,2013-06-07 05:40:00,
2013-06-07 01:45:00,70.0,69.1,29.82,ESE,105,0.0,0.0,97,0.01,,-RA,0.01,VWS V14.01,2013-06-07 05:45:00,
2013-06-07 01:50:00,70.0,69.1,29.82,ESE,105,0.0,0.0,97,0.02,,-RA,0.02,VWS V14.01,2013-06-07 05:50:00,
2013-06-07 01:55:00,70.1,69.2,29.81,ESE,105,0.0,0.0,97,0.02,,-RA,0.02,VWS V14.01,2013-06-07 05:55:00,
2013-06-07 02:01:00,70.1,69.5,29.81,ESE,105,0.0,0.0,98,0.03,,-RA,0.03,VWS V14.01,2013-06-07 06:01:00,
2013-06-07 02:05:00,70.2,69.6,29.81,ESE,105,0.0,0.0,98,0.03,,-RA,0.03,VWS V14.01,2013-06-07 06:05:00,
2013-06-07 02:10:00,70.2,69.6,29.81,ESE,105,0.0,0.0,98,0.03,,-RA,0.03,VWS V14.01,2013-06-07 06:10:00,
2013-06-07 02:15:00,70.3,69.7,29.81,ESE,105,0.0,0.0,98,0.04,,-RA,0.04,VWS V14.01,2013-06-07 06:15:00,
2013-06-07 02:20:00,70.3,69.7,29.80,ESE,105,0.0,0.0,98,0.04,,-RA,0.04,VWS V14.01,2013-06-07 06:20:00,
2013-06-07 02:25:00,70.4,69.8,29.80,ESE,105,0.0,0.0,98,0.05,,-RA,0.05,VWS V14.01,2013-06-07 06:25:00,
2013-06-07 02:35:00,70.5,69.9,29.79,ESE,105,0.0,0.0,98,0.06,,-RA,0.06,VWS V14.01,2013-06-07 06:35:00,
2013-06-07 02:40:00,70.5,69.9,29.79,ESE,105,0.0,0.0,98,0.05,,-RA,0.06,VWS V14.01,2013-06-07 06:40:00,
2013-06-07 02:45:00,70.5,69.9,29.79,ESE,105,0.0,0.0,98,0.06,,-RA,0.07,VWS V14.01,2013-06-07 06:45:00,
2013-06-07 02:50:00,70.6,70.0,29.78,ESE,105,0.0,0.0,98,0.07,,-RA,0.08,VWS V14.01,2013-06-07 06:50:00,
2013-06-07 02:55:00,70.6,70.0,29.78,ESE,105,0.0,1.0,98,0.07,,-RA,0.09,VWS V14.01,2013-06-07 06:55:00,
2013-06-07 03:01:00,70.5,69.9,29.77,ESE,105,0.0,0.0,98,0.08,,-RA,0.10,VWS V14.01,2013-06-07 07:01:00,
2013-06-07 03:10:00,70.5,69.9,29.77,ESE,105,0.0,0.0,98,0.07,,-RA,0.10,VWS V14.01,2013-06-07 07:10:00,
2013-06-07 03:15:00,70.4,69.8,29.77,ESE,105,0.0,0.0,98,0.08,,-RA,0.11,VWS V14.01,2013-06-07 07:15:00,
2013-06-07 03:20:00,70.4,69.8,29.76,ESE,105,0.0,1.0,98,0.07,,-RA,0.11,VWS V14.01,2013-06-07 07:20:00,
2013-06-07 03:25:00,70.4,69.8,29.76,ESE,105,0.0,0.0,98,0.07,,-RA,0.11,VWS V14.01,2013-06-07 07:25:00,
2013-06-07 03:30:00,70.3,69.7,29.75,ESE,105,0.0,0.0,98,0.06,,-RA,0.11,VWS V14.01,2013-06-07 07:30:00,
2013-06-07 03:35:00,70.3,69.7,29.75,ESE,105,0.0,0.0,98,0.07,,-RA,0.12,VWS V14.01,2013-06-07 07:35:00,
2013-06-07 03:40:00,70.2,69.6,29.75,ESE,105,0.0,0.0,98,0.06,,-RA,0.12,VWS V14.01,2013-06-07 07:40:00,
2013-06-07 03:45:00,70.2,69.6,29.75,ESE,105,0.0,1.0,98,0.07,,-RA,0.13,VWS V14.01,2013-06-07 07:45:00,
2013-06-07 03:50:00,70.2,69.6,29.74,ESE,105,0.0,1.0,98,0.07,,-RA,0.14,VWS V14.01,2013-06-07 07:50:00,
2013-06-07 03:55:00,70.1,69.5,29.74,ESE,105,0.0,0.0,98,0.07,,-RA,0.15,VWS V14.01,2013-06-07 07:55:00,
2013-06-07 04:01:00,70.1,69.5,29.74,ESE,105,0.0,0.0,98,0.10,,-RA,0.19,VWS V14.01,2013-06-07 08:01:00,
2013-06-07 04:10:00,69.9,69.3,29.72,East,101,0.0,1.0,98,0.17,,-RA,0.27,VWS V14.01,2013-06-07 08:10:00,
2013-06-07 04:16:00,69.8,69.2,29.72,East,101,0.0,1.0,98,0.21,,-RA,0.31,VWS V14.01,2013-06-07 08:16:00,
2013-06-07 04:20:00,69.7,69.1,29.72,East,101,0.0,1.0,98,0.22,,-RA,0.33,VWS V14.01,2013-06-07 08:20:00,
2013-06-07 04:25:00,69.7,69.1,29.71,ENE,75,0.0,1.0,98,0.24,,-RA,0.35,VWS V14.01,2013-06-07 08:25:00,
2013-06-07 04:30:00,69.6,69.0,29.71,NE,34,1.0,2.0,98,0.25,,,0.36,VWS V14.01,2013-06-07 08:30:00,
2013-06-07 04:35:00,69.5,68.9,29.70,NNE,19,1.0,2.0,98,0.27,,,0.38,VWS V14.01,2013-06-07 08:35:00,
2013-06-07 04:40:00,69.5,68.9,29.70,North,10,0.0,2.0,98,0.27,,,0.39,VWS V14.01,2013-06-07 08:40:00,
2013-06-07 04:45:00,69.4,68.8,29.70,NE,54,1.0,2.0,98,0.27,,,0.39,VWS V14.01,2013-06-07 08:45:00,
2013-06-07 04:50:00,69.4,68.8,29.69,NNE,15,2.0,2.0,98,0.27,,,0.40,VWS V14.01,2013-06-07 08:50:00,
2013-06-07 04:55:00,69.4,68.8,29.69,East,79,1.0,2.0,98,0.27,,,0.41,VWS V14.01,2013-06-07 08:55:00,
2013-06-07 05:01:00,69.4,68.8,29.69,NNE,33,0.0,1.0,98,0.27,,RA,0.42,VWS V14.01,2013-06-07 09:01:00,
2013-06-07 05:10:00,69.4,68.8,29.69,North,8,0.0,5.0,98,0.19,,RA,0.43,VWS V14.01,2013-06-07 09:10:00,
2013-06-07 05:15:00,69.3,68.7,29.69,NNE,25,1.0,5.0,98,0.18,,RA,0.45,VWS V14.01,2013-06-07 09:15:00,
2013-06-07 05:20:00,69.2,68.6,29.68,North,1,1.0,3.0,98,0.15,,RA,0.46,VWS V14.01,2013-06-07 09:20:00,
2013-06-07 05:25:00,69.1,68.5,29.68,North,8,0.0,3.0,98,0.14,,RA,0.47,VWS V14.01,2013-06-07 09:25:00,
2013-06-07 05:30:00,69.1,68.5,29.68,NNE,15,0.0,2.0,98,0.13,,RA,0.48,VWS V14.01,2013-06-07 09:30:00,
2013-06-07 05:35:00,69.0,68.4,29.67,NNE,22,1.0,2.0,98,0.12,,RA,0.48,VWS V14.01,2013-06-07 09:35:00,
2013-06-07 05:40:00,69.0,68.4,29.67,NNE,25,0.0,3.0,98,0.10,,RA,0.48,VWS V14.01,2013-06-07 09:40:00,
2013-06-07 05:46:00,69.0,68.4,29.67,NNE,27,2.0,4.0,98,0.10,,RA,0.49,VWS V14.01,2013-06-07 09:46:00,
2013-06-07 05:50:00,69.0,68.4,29.66,NNE,15,1.0,4.0,98,0.11,,RA,0.50,VWS V14.01,2013-06-07 09:50:00,
2013-06-07 05:55:00,69.0,68.4,29.66,NNE,23,0.0,5.0,98,0.11,,RA,0.51,VWS V14.01,2013-06-07 09:55:00,
2013-06-07 06:05:00,68.9,68.3,29.67,NE,35,0.0,2.0,98,0.11,,-RA,0.53,VWS V14.01,2013-06-07 10:05:00,
2013-06-07 06:10:00,68.9,68.3,29.67,NE,51,0.0,3.0,98,0.11,,-RA,0.53,VWS V14.01,2013-06-07 10:10:00,
2013-06-07 06:15:00,69.0,68.4,29.67,NNE,16,1.0,3.0,98,0.10,,-RA,0.53,VWS V14.01,2013-06-07 10:15:00,
2013-06-07 06:20:00,69.0,68.4,29.67,NNE,15,0.0,1.0,98,0.08,,-RA,0.53,VWS V14.01,2013-06-07 10:20:00,
2013-06-07 06:25:00,69.0,68.4,29.67,North,8,3.0,3.0,98,0.07,,-RA,0.53,VWS V14.01,2013-06-07 10:25:00,
2013-06-07 06:30:00,69.1,68.5,29.67,North,7,0.0,3.0,98,0.07,,-RA,0.54,VWS V14.01,2013-06-07 10:30:00,
2013-06-07 06:35:00,69.1,68.5,29.67,North,7,1.0,1.0,98,0.08,,-RA,0.56,VWS V14.01,2013-06-07 10:35:00,
2013-06-07 06:40:00,69.1,68.5,29.66,NNE,29,2.0,2.0,98,0.09,,-RA,0.57,VWS V14.01,2013-06-07 10:40:00,
2013-06-07 06:46:00,69.2,68.6,29.67,NNE,28,0.0,2.0,98,0.10,,-RA,0.58,VWS V14.01,2013-06-07 10:46:00,
2013-06-07 06:50:00,69.2,68.6,29.67,SW,234,0.0,3.0,98,0.12,,-RA,0.61,VWS V14.01,2013-06-07 10:50:00,
2013-06-07 06:55:00,69.3,68.7,29.67,East,99,0.0,1.0,98,0.13,,-RA,0.63,VWS V14.01,2013-06-07 10:55:00,
2013-06-07 07:01:00,69.3,68.7,29.66,North,6,0.0,2.0,98,0.13,,-RA,0.64,VWS V14.01,2013-06-07 11:01:00,
2013-06-07 07:06:00,69.4,68.8,29.66,SE,134,0.0,2.0,98,0.14,,-RA,0.66,VWS V14.01,2013-06-07 11:06:00,
2013-06-07 07:11:00,69.5,68.9,29.66,SSE,153,0.0,2.0,98,0.14,,-RA,0.67,VWS V14.01,2013-06-07 11:11:00,
2013-06-07 07:16:00,69.7,69.1,29.65,East,91,0.0,2.0,98,0.15,,-RA,0.68,VWS V14.01,2013-06-07 11:16:00,
2013-06-07 07:20:00,69.8,69.2,29.65,ENE,70,0.0,2.0,98,0.16,,-RA,0.69,VWS V14.01,2013-06-07 11:20:00,
2013-06-07 07:25:00,69.9,69.3,29.65,ENE,70,0.0,1.0,98,0.17,,-RA,0.70,VWS V14.01,2013-06-07 11:25:00,
2013-06-07 07:30:00,69.8,69.2,29.64,ESE,117,0.0,3.0,98,0.17,,-RA,0.70,VWS V14.01,2013-06-07 11:30:00,
2013-06-07 07:36:00,69.8,69.2,29.64,ESE,105,0.0,3.0,98,0.17,,-RA,0.71,VWS V14.01,2013-06-07 11:36:00,
2013-06-07 07:40:00,69.9,69.3,29.65,SE,127,0.0,3.0,98,0.16,,-RA,0.72,VWS V14.01,2013-06-07 11:40:00,
2013-06-07 07:45:00,69.8,69.2,29.65,ESE,122,1.0,1.0,98,0.16,,-RA,0.73,VWS V14.01,2013-06-07 11:45:00,
2013-06-07 07:51:00,69.8,68.9,29.65,East,98,0.0,4.0,97,0.19,,-RA,0.77,VWS V14.01,2013-06-07 11:51:00,
2013-06-07 07:56:00,69.9,69.0,29.65,ESE,113,0.0,5.0,97,0.21,,-RA,0.82,VWS V14.01,2013-06-07 11:56:00,
2013-06-07 08:01:00,70.0,69.4,29.66,East,91,0.0,6.0,98,0.22,,-RA,0.85,VWS V14.01,2013-06-07 12:01:00,
2013-06-07 08:10:00,70.2,69.6,29.65,SSE,165,0.0,4.0,98,0.28,,-RA,0.94,VWS V14.01,2013-06-07 12:10:00,
2013-06-07 08:16:00,70.4,69.8,29.64,SE,124,1.0,3.0,98,0.29,,-RA,0.96,VWS V14.01,2013-06-07 12:16:00,
2013-06-07 08:21:00,70.6,70.0,29.64,East,97,1.0,2.0,98,0.30,,-RA,0.98,VWS V14.01,2013-06-07 12:21:00,
2013-06-07 08:26:00,70.7,70.1,29.63,ESE,121,0.0,3.0,98,0.30,,-RA,0.99,VWS V14.01,2013-06-07 12:26:00,
2013-06-07 08:30:00,70.9,70.3,29.64,SE,124,0.0,3.0,98,0.29,,-RA,0.99,VWS V14.01,2013-06-07 12:30:00,
2013-06-07 08:36:00,71.1,70.2,29.64,SE,126,0.0,2.0,97,0.29,,-RA,0.99,VWS V14.01,2013-06-07 12:36:00,
2013-06-07 08:40:00,71.3,70.7,29.64,SE,128,1.0,2.0,98,0.28,,-RA,0.99,VWS V14.01,2013-06-07 12:40:00,
2013-06-07 08:45:00,71.4,70.5,29.64,SE,126,0.0,1.0,97,0.27,,-RA,0.99,VWS V14.01,2013-06-07 12:45:00,
2013-06-07 08:51:00,71.5,70.6,29.64,East,98,0.0,3.0,97,0.26,,-RA,0.99,VWS V14.01,2013-06-07 12:51:00,
2013-06-07 08:55:00,71.6,70.7,29.64,East,98,0.0,1.0,97,0.23,,-RA,1.00,VWS V14.01,2013-06-07 12:55:00,
2013-06-07 09:01:00,71.9,71.0,29.63,East,101,0.0,6.0,97,0.18,,,1.00,VWS V14.01,2013-06-07 13:01:00,
2013-06-07 09:11:00,73.0,72.1,29.63,SSW,194,0.0,4.0,97,0.13,,,1.00,VWS V14.01,2013-06-07 13:11:00,
2013-06-07 09:16:00,73.2,71.7,29.63,ESE,104,0.0,4.0,95,0.06,,,1.00,VWS V14.01,2013-06-07 13:16:00,
2013-06-07 09:21:00,73.5,72.0,29.63,ESE,111,1.0,2.0,95,0.04,,-RA,1.00,VWS V14.01,2013-06-07 13:21:00,
2013-06-07 09:26:00,73.9,72.7,29.63,ESE,112,0.0,1.0,96,0.02,,-RA,1.00,VWS V14.01,2013-06-07 13:26:00,
2013-06-07 09:31:00,74.1,72.3,29.63,ESE,103,2.0,3.0,94,0.01,,-RA,1.00,VWS V14.01,2013-06-07 13:31:00,
2013-06-07 09:36:00,74.3,72.5,29.63,SE,134,0.0,2.0,94,0.01,,-RA,1.00,VWS V14.01,2013-06-07 13:36:00,
2013-06-07 09:41:00,74.3,72.8,29.62,ESE,120,0.0,1.0,95,0.01,,-RA,1.00,VWS V14.01,2013-06-07 13:41:00,
2013-06-07 09:45:00,74.2,72.7,29.62,ESE,120,0.0,0.0,95,0.01,,-RA,1.00,VWS V14.01,2013-06-07 13:45:00,
2013-06-07 09:51:00,74.0,72.5,29.61,ESE,120,0.0,0.0,95,0.03,,-RA,1.02,VWS V14.01,2013-06-07 13:51:00,
2013-06-07 09:55:00,73.9,72.4,29.62,ESE,120,0.0,0.0,95,0.05,,-RA,1.04,VWS V14.01,2013-06-07 13:55:00,
2013-06-07 10:01:00,73.9,72.7,29.61,ESE,120,0.0,0.0,96,0.06,,-RA,1.06,VWS V14.01,2013-06-07 14:01:00,
2013-06-07 10:06:00,73.8,72.6,29.61,ESE,120,0.0,0.0,96,0.09,,-RA,1.09,VWS V14.01,2013-06-07 14:06:00,
2013-06-07 10:11:00,73.7,72.5,29.61,ESE,120,0.0,1.0,96,0.15,,-RA,1.15,VWS V14.01,2013-06-07 14:11:00,
2013-06-07 10:16:00,73.6,72.4,29.60,ESE,120,0.0,1.0,96,0.18,,-RA,1.18,VWS V14.01,2013-06-07 14:16:00,
2013-06-07 10:21:00,73.5,72.6,29.60,ESE,120,0.0,0.0,97,0.18,,-RA,1.18,VWS V14.01,2013-06-07 14:21:00,
2013-06-07 10:26:00,73.5,72.6,29.60,ESE,120,0.0,0.0,97,0.18,,-RA,1.18,VWS V14.01,2013-06-07 14:26:00,
2013-06-07 10:31:00,73.5,72.6,29.60,ESE,120,0.0,0.0,97,0.18,,-RA,1.18,VWS V14.01,2013-06-07 14:31:00,
2013-06-07 10:36:00,73.5,72.6,29.60,ESE,120,0.0,0.0,97,0.18,,-RA,1.18,VWS V14.01,2013-06-07 14:36:00,
2013-06-07 10:41:00,73.6,72.7,29.60,ESE,120,0.0,0.0,97,0.18,,-RA,1.18,VWS V14.01,2013-06-07 14:41:00,
2013-06-07 10:46:00,73.8,72.9,29.59,ESE,120,0.0,0.0,97,0.18,,-RA,1.18,VWS V14.01,2013-06-07 14:46:00,
2013-06-07 10:51:00,74.0,73.1,29.59,ESE,120,0.0,0.0,97,0.18,,-RA,1.18,VWS V14.01,2013-06-07 14:51:00,
2013-06-07 10:56:00,74.1,73.2,29.59,ESE,120,0.0,0.0,97,0.16,,-RA,1.18,VWS V14.01,2013-06-07 14:56:00,
2013-06-07 11:01:00,74.3,73.4,29.59,ESE,120,0.0,1.0,97,0.14,,OVC028,1.18,VWS V14.01,2013-06-07 15:01:00,
2013-06-07 11:06:00,74.6,73.7,29.59,ESE,120,0.0,1.0,97,0.12,,OVC028,1.18,VWS V14.01,2013-06-07 15:06:00,
2013-06-07 11:11:00,74.9,74.0,29.58,SE,131,0.0,1.0,97,0.09,,OVC028,1.18,VWS V14.01,2013-06-07 15:11:00,
2013-06-07 11:16:00,75.3,74.4,29.58,SE,131,0.0,1.0,97,0.03,,OVC028,1.18,VWS V14.01,2013-06-07 15:16:00,
2013-06-07 11:21:00,75.6,74.7,29.58,SE,131,1.0,2.0,97,0.00,,OVC028,1.18,VWS V14.01,2013-06-07 15:21:00,
2013-06-07 11:26:00,76.1,75.2,29.58,NNE,13,0.0,2.0,97,0.00,,OVC028,1.18,VWS V14.01,2013-06-07 15:26:00,
2013-06-07 11:31:00,76.4,75.2,29.57,NNE,13,0.0,1.0,96,0.00,,OVC028,1.18,VWS V14.01,2013-06-07 15:31:00,
2013-06-07 11:36:00,76.6,74.8,29.57,ESE,122,1.0,3.0,94,0.00,,OVC028,1.18,VWS V14.01,2013-06-07 15:36:00,
2013-06-07 11:41:00,76.6,74.8,29.57,SE,129,0.0,1.0,94,0.00,,OVC028,1.18,VWS V14.01,2013-06-07 15:41:00,
2013-06-07 11:46:00,76.5,74.7,29.57,SSE,153,0.0,3.0,94,0.00,,OVC028,1.18,VWS V14.01,2013-06-07 15:46:00,
2013-06-07 11:51:00,76.5,74.7,29.56,SSE,152,0.0,0.0,94,0.00,,OVC028,1.18,VWS V14.01,2013-06-07 15:51:00,
2013-06-07 11:56:00,76.4,74.9,29.56,NNE,16,2.0,3.0,95,0.00,,OVC028,1.18,VWS V14.01,2013-06-07 15:56:00,
2013-06-07 12:01:00,76.0,74.2,29.56,NE,45,0.0,2.0,94,0.00,,-RA,1.18,VWS V14.01,2013-06-07 16:01:00,
2013-06-07 12:11:00,75.4,73.9,29.55,East,86,1.0,2.0,95,0.00,,-RA,1.18,VWS V14.01,2013-06-07 16:11:00,
2013-06-07 12:16:00,75.2,74.0,29.55,NE,51,1.0,2.0,96,0.00,,-RA,1.18,VWS V14.01,2013-06-07 16:16:00,
2013-06-07 12:21:00,75.0,73.5,29.55,South,180,3.0,5.0,95,0.00,,-RA,1.18,VWS V14.01,2013-06-07 16:21:00,
2013-06-07 12:26:00,74.7,73.2,29.55,SSE,152,1.0,5.0,95,0.00,,-RA,1.18,VWS V14.01,2013-06-07 16:26:00,
2013-06-07 12:31:00,74.8,73.0,29.54,SE,143,0.0,5.0,94,0.00,,-RA,1.18,VWS V14.01,2013-06-07 16:31:00,
2013-06-07 12:36:00,75.0,73.5,29.54,ENE,73,1.0,2.0,95,0.00,,-RA,1.18,VWS V14.01,2013-06-07 16:36:00,
2013-06-07 12:41:00,75.2,73.7,29.54,SE,129,1.0,2.0,95,0.00,,-RA,1.18,VWS V14.01,2013-06-07 16:41:00,
2013-06-07 12:46:00,75.4,73.9,29.54,SE,136,2.0,4.0,95,0.00,,-RA,1.18,VWS V14.01,2013-06-07 16:46:00,
2013-06-07 12:51:00,75.9,74.7,29.53,South,171,0.0,3.0,96,0.00,,-RA,1.18,VWS V14.01,2013-06-07 16:51:00,
2013-06-07 12:56:00,76.5,75.0,29.53,NNE,29,1.0,4.0,95,0.00,,-RA,1.18,VWS V14.01,2013-06-07 16:56:00,
2013-06-07 13:01:00,76.8,75.3,29.52,ENE,71,0.0,2.0,95,0.00,,OVC040,1.18,VWS V14.01,2013-06-07 17:01:00,
2013-06-07 13:11:00,78.1,76.2,29.51,NW,313,1.0,1.0,94,0.00,,OVC040,1.18,VWS V14.01,2013-06-07 17:11:00,
2013-06-07 13:16:00,78.4,75.9,29.51,NE,37,0.0,2.0,92,0.00,,OVC040,1.18,VWS V14.01,2013-06-07 17:16:00,
2013-06-07 13:21:00,78.6,75.1,29.51,SE,142,0.0,5.0,89,0.00,,RA,1.18,VWS V14.01,2013-06-07 17:21:00,
2013-06-07 13:26:00,78.7,74.8,29.50,SE,129,1.0,5.0,88,0.00,,RA,1.18,VWS V14.01,2013-06-07 17:26:00,
2013-06-07 13:31:00,78.7,75.5,29.50,SSE,155,1.0,6.0,90,0.00,, +RA,1.18,VWS V14.01,2013-06-07 17:31:00,
2013-06-07 13:36:00,78.3,75.1,29.49,SE,127,1.0,5.0,90,0.00,, +RA,1.18,VWS V14.01,2013-06-07 17:36:00,
2013-06-07 13:41:00,78.4,75.6,29.49,NW,309,0.0,3.0,91,0.00,, +RA,1.18,VWS V14.01,2013-06-07 17:41:00,
2013-06-07 13:46:00,78.3,75.1,29.49,East,92,0.0,2.0,90,0.00,, +RA,1.18,VWS V14.01,2013-06-07 17:46:00,
2013-06-07 13:51:00,78.2,74.7,29.49,NE,49,0.0,3.0,89,0.00,, +RA,1.18,VWS V14.01,2013-06-07 17:51:00,
2013-06-07 13:56:00,78.1,74.9,29.49,SE,133,1.0,1.0,90,0.00,, +RA,1.18,VWS V14.01,2013-06-07 17:56:00,
2013-06-07 14:01:00,78.2,75.0,29.48,ESE,110,0.0,1.0,90,0.00,, +RA,1.18,VWS V14.01,2013-06-07 18:01:00,
2013-06-07 14:11:00,78.0,74.8,29.48,ESE,110,0.0,1.0,90,0.00,, +RA,1.18,VWS V14.01,2013-06-07 18:11:00,
2013-06-07 14:16:00,77.7,74.5,29.48,ESE,106,0.0,3.0,90,0.00,, +RA,1.18,VWS V14.01,2013-06-07 18:16:00,
2013-06-07 14:21:00,77.0,73.8,29.48,SE,136,0.0,8.0,90,0.00,, +RA,1.18,VWS V14.01,2013-06-07 18:21:00,
2013-06-07 14:26:00,76.3,73.8,29.47,West,262,0.0,1.0,92,0.00,, +RA,1.18,VWS V14.01,2013-06-07 18:26:00,
2013-06-07 14:36:00,75.8,73.9,29.47,SE,130,0.0,0.0,94,0.00,, +RA,1.18,VWS V14.01,2013-06-07 18:36:00,
2013-06-07 14:41:00,75.6,73.8,29.47,SE,130,0.0,0.0,94,0.00,, +RA,1.18,VWS V14.01,2013-06-07 18:41:00,
2013-06-07 14:46:00,75.6,74.1,29.46,SE,130,0.0,0.0,95,0.00,,RA,1.18,VWS V14.01,2013-06-07 18:46:00,
2013-06-07 14:56:00,75.4,74.2,29.46,SE,130,0.0,1.0,96,0.00,,RA,1.18,VWS V14.01,2013-06-07 18:56:00,
2013-06-07 15:01:00,75.4,74.2,29.46,SE,130,0.0,0.0,96,0.00,,,1.18,VWS V14.01,2013-06-07 19:01:00,
2013-06-07 15:11:00,75.1,73.9,29.47,SE,132,0.0,0.0,96,0.00,,,1.18,VWS V14.01,2013-06-07 19:11:00,
2013-06-07 15:16:00,75.0,73.8,29.48,WNW,285,1.0,4.0,96,0.00,,,1.18,VWS V14.01,2013-06-07 19:16:00,
2013-06-07 15:21:00,74.8,73.6,29.49,West,262,1.0,3.0,96,0.13,,,1.31,VWS V14.01,2013-06-07 19:21:00,
2013-06-07 15:31:00,72.6,70.8,29.51,NNW,328,0.0,4.0,94,0.18,,,1.36,VWS V14.01,2013-06-07 19:31:00,
2013-06-07 15:36:00,71.9,70.4,29.54,West,266,0.0,4.0,95,0.45,,,1.63,VWS V14.01,2013-06-07 19:36:00,
2013-06-07 15:46:00,71.1,69.9,29.52,WNW,298,0.0,2.0,96,0.80,,,1.98,VWS V14.01,2013-06-07 19:46:00,
2013-06-07 15:56:00,70.7,69.8,29.44,WNW,298,0.0,4.0,97,0.87,,,2.05,VWS V14.01,2013-06-07 19:56:00,
2013-06-07 16:01:00,70.6,69.7,29.44,WNW,303,0.0,5.0,97,0.89,,,2.07,VWS V14.01,2013-06-07 20:01:00,
2013-06-07 16:11:00,70.4,69.5,29.44,WNW,292,2.0,3.0,97,0.91,,,2.09,VWS V14.01,2013-06-07 20:11:00,
2013-06-07 16:16:00,70.3,69.4,29.43,West,278,1.0,5.0,97,0.92,,,2.10,VWS V14.01,2013-06-07 20:16:00,
2013-06-07 16:26:00,70.5,69.6,29.51,West,273,3.0,10.0,97,0.82,,,2.13,VWS V14.01,2013-06-07 20:26:00,
2013-06-07 16:31:00,70.7,69.5,29.53,WSW,243,5.0,9.0,96,0.84,,-RA,2.16,VWS V14.01,2013-06-07 20:31:00,
2013-06-07 16:36:00,70.8,69.6,29.53,WNW,289,4.0,11.0,96,0.83,,-RA,2.19,VWS V14.01,2013-06-07 20:36:00,
2013-06-07 16:41:00,70.9,69.7,29.53,SW,217,0.0,4.0,96,0.59,,-RA,2.22,VWS V14.01,2013-06-07 20:41:00,
2013-06-07 16:46:00,71.0,70.1,29.54,West,274,1.0,2.0,97,0.34,,-RA,2.23,VWS V14.01,2013-06-07 20:46:00,
2013-06-07 16:51:00,71.0,70.1,29.55,West,277,2.0,5.0,97,0.26,,-RA,2.24,VWS V14.01,2013-06-07 20:51:00,
2013-06-07 16:56:00,71.0,69.8,29.55,West,279,0.0,3.0,96,0.21,,-RA,2.24,VWS V14.01,2013-06-07 20:56:00,
2013-06-07 17:01:00,70.8,69.6,29.54,WNW,287,0.0,4.0,96,0.19,,-RA,2.24,VWS V14.01,2013-06-07 21:01:00,
2013-06-07 17:11:00,70.9,70.0,29.56,WSW,248,4.0,6.0,97,0.16,,-RA,2.24,VWS V14.01,2013-06-07 21:11:00,
2013-06-07 17:16:00,70.9,70.0,29.57,West,259,3.0,4.0,97,0.15,,-RA,2.24,VWS V14.01,2013-06-07 21:16:00,
2013-06-07 17:21:00,70.8,69.6,29.58,WSW,257,1.0,4.0,96,0.14,,-RA,2.24,VWS V14.01,2013-06-07 21:21:00,
2013-06-07 17:31:00,70.5,69.3,29.59,West,259,2.0,5.0,96,0.11,,-RA,2.24,VWS V14.01,2013-06-07 21:31:00,
2013-06-07 17:36:00,70.5,69.6,29.60,WSW,247,4.0,7.0,97,0.08,,-RA,2.24,VWS V14.01,2013-06-07 21:36:00,
2013-06-07 17:41:00,70.4,69.2,29.60,WNW,299,1.0,6.0,96,0.05,,BKN090,2.24,VWS V14.01,2013-06-07 21:41:00,
2013-06-07 17:46:00,70.5,69.3,29.60,SE,143,1.0,4.0,96,0.02,,BKN090,2.24,VWS V14.01,2013-06-07 21:46:00,
2013-06-07 17:51:00,70.5,69.3,29.61,West,276,0.0,3.0,96,0.01,,BKN090,2.24,VWS V14.01,2013-06-07 21:51:00,
2013-06-07 17:56:00,70.5,69.3,29.61,West,269,0.0,8.0,96,0.00,,BKN090,2.24,VWS V14.01,2013-06-07 21:56:00,
2013-06-07 18:01:00,70.7,69.5,29.62,ENE,65,1.0,4.0,96,0.00,,BKN090,2.24,VWS V14.01,2013-06-07 22:01:00,
2013-06-07 18:11:00,71.2,70.0,29.62,West,271,0.0,2.0,96,0.00,,BKN090,2.24,VWS V14.01,2013-06-07 22:11:00,
2013-06-07 18:16:00,71.0,69.5,29.62,West,273,0.0,6.0,95,0.00,,BKN090,2.24,VWS V14.01,2013-06-07 22:16:00,
2013-06-07 18:21:00,71.0,69.8,29.63,West,271,0.0,1.0,96,0.00,,BKN090,2.24,VWS V14.01,2013-06-07 22:21:00,
2013-06-07 18:26:00,71.1,69.9,29.63,NW,311,0.0,4.0,96,0.00,,BKN090,2.24,VWS V14.01,2013-06-07 22:26:00,
2013-06-07 18:36:00,71.1,69.9,29.64,SW,221,0.0,4.0,96,0.00,,BKN090,2.24,VWS V14.01,2013-06-07 22:36:00,
2013-06-07 18:41:00,71.3,69.8,29.65,WSW,240,1.0,3.0,95,0.00,,BKN090,2.24,VWS V14.01,2013-06-07 22:41:00,
2013-06-07 18:46:00,71.5,69.7,29.65,WSW,247,2.0,8.0,94,0.00,,BKN090,2.24,VWS V14.01,2013-06-07 22:46:00,
2013-06-07 18:51:00,71.6,69.8,29.66,WSW,250,2.0,5.0,94,0.00,,BKN060,2.24,VWS V14.01,2013-06-07 22:51:00,
2013-06-07 18:56:00,71.6,69.8,29.66,WSW,255,4.0,6.0,94,0.00,,BKN060,2.24,VWS V14.01,2013-06-07 22:56:00,
2013-06-07 19:01:00,71.6,69.8,29.67,SW,222,1.0,4.0,94,0.00,,BKN060,2.24,VWS V14.01,2013-06-07 23:01:00,
2013-06-07 19:11:00,71.5,69.7,29.68,WSW,252,1.0,4.0,94,0.00,,BKN060,2.24,VWS V14.01,2013-06-07 23:11:00,
2013-06-07 19:16:00,71.5,69.7,29.68,WSW,252,1.0,2.0,94,0.00,,BKN060,2.24,VWS V14.01,2013-06-07 23:16:00,
2013-06-07 19:21:00,71.6,69.8,29.69,WSW,254,2.0,5.0,94,0.00,,BKN060,2.24,VWS V14.01,2013-06-07 23:21:00,
2013-06-07 19:26:00,71.7,69.6,29.69,SW,231,0.0,6.0,93,0.00,,BKN060,2.24,VWS V14.01,2013-06-07 23:26:00,
2013-06-07 19:31:00,71.7,69.9,29.69,West,268,0.0,2.0,94,0.00,,BKN060,2.24,VWS V14.01,2013-06-07 23:31:00,
2013-06-07 19:36:00,71.6,69.8,29.69,SW,234,0.0,1.0,94,0.00,,BKN060,2.24,VWS V14.01,2013-06-07 23:36:00,
2013-06-07 19:41:00,71.6,69.8,29.70,SW,231,0.0,2.0,94,0.00,,BKN060,2.24,VWS V14.01,2013-06-07 23:41:00,
2013-06-07 19:51:00,71.8,70.0,29.70,SW,219,1.0,3.0,94,0.00,,BKN060,2.24,VWS V14.01,2013-06-07 23:51:00,
2013-06-07 20:01:00,71.9,69.8,29.72,West,266,1.0,5.0,93,0.00,,BKN200,2.24,VWS V14.01,2013-06-08 00:01:00,
2013-06-07 20:11:00,71.8,69.7,29.72,WSW,245,2.0,4.0,93,0.00,,BKN200,2.24,VWS V14.01,2013-06-08 00:11:00,
2013-06-07 20:21:00,71.7,69.6,29.73,SSW,212,0.0,1.0,93,0.00,,BKN200,2.24,VWS V14.01,2013-06-08 00:21:00,
2013-06-07 20:26:00,71.6,69.8,29.73,WSW,257,1.0,2.0,94,0.00,,BKN200,2.24,VWS V14.01,2013-06-08 00:26:00,
2013-06-07 20:36:00,71.6,69.8,29.74,SW,234,0.0,3.0,94,0.00,,BKN200,2.24,VWS V14.01,2013-06-08 00:36:00,
2013-06-07 20:41:00,71.6,69.8,29.74,SW,225,0.0,3.0,94,0.00,,BKN200,2.24,VWS V14.01,2013-06-08 00:41:00,
2013-06-07 20:46:00,71.5,69.7,29.74,WSW,255,1.0,2.0,94,0.00,,BKN200,2.24,VWS V14.01,2013-06-08 00:46:00,
2013-06-07 20:51:00,71.5,69.7,29.74,West,271,0.0,2.0,94,0.00,,BKN200,2.24,VWS V14.01,2013-06-08 00:51:00,
2013-06-07 20:56:00,71.5,69.7,29.74,SSW,207,0.0,1.0,94,0.00,,BKN200,2.24,VWS V14.01,2013-06-08 00:56:00,
2013-06-07 21:11:00,71.4,69.6,29.75,WSW,247,0.0,1.0,94,0.00,,BKN050,2.24,VWS V14.01,2013-06-08 01:11:00,
2013-06-07 21:16:00,71.5,69.7,29.75,West,276,0.0,1.0,94,0.00,,BKN050,2.24,VWS V14.01,2013-06-08 01:16:00,
2013-06-07 21:21:00,71.6,69.8,29.75,West,276,0.0,1.0,94,0.00,,BKN050,2.24,VWS V14.01,2013-06-08 01:21:00,
2013-06-07 21:26:00,71.6,69.8,29.76,West,276,0.0,1.0,94,0.00,,BKN050,2.24,VWS V14.01,2013-06-08 01:26:00,
2013-06-07 21:31:00,71.5,69.7,29.76,West,276,0.0,0.0,94,0.00,,BKN050,2.24,VWS V14.01,2013-06-08 01:31:00,
2013-06-07 21:41:00,71.4,69.9,29.77,West,276,0.0,0.0,95,0.00,,BKN050,2.24,VWS V14.01,2013-06-08 01:41:00,
2013-06-07 21:46:00,71.3,69.8,29.77,West,276,0.0,1.0,95,0.00,,BKN050,2.24,VWS V14.01,2013-06-08 01:46:00,
2013-06-07 21:51:00,71.3,69.8,29.78,West,276,0.0,0.0,95,0.00,,BKN050,2.24,VWS V14.01,2013-06-08 01:51:00,
2013-06-07 22:06:00,71.1,69.9,29.78,West,276,0.0,0.0,96,0.00,,-RA,2.24,VWS V14.01,2013-06-08 02:06:00,
2013-06-07 22:11:00,71.0,69.8,29.79,West,276,0.0,0.0,96,0.00,,-RA,2.24,VWS V14.01,2013-06-08 02:11:00,
2013-06-07 22:26:00,70.9,70.0,29.79,West,276,0.0,0.0,97,0.00,,-RA,2.24,VWS V14.01,2013-06-08 02:26:00,
2013-06-07 22:31:00,70.9,70.0,29.79,West,276,0.0,0.0,97,0.00,,-RA,2.24,VWS V14.01,2013-06-08 02:31:00,
2013-06-07 22:41:00,70.8,69.9,29.80,West,276,0.0,0.0,97,0.00,,-RA,2.24,VWS V14.01,2013-06-08 02:41:00,
2013-06-07 22:51:00,70.8,69.9,29.80,West,276,0.0,0.0,97,0.00,,-RA,2.24,VWS V14.01,2013-06-08 02:51:00,
2013-06-07 22:56:00,70.8,69.9,29.80,South,187,0.0,0.0,97,0.00,,-RA,2.24,VWS V14.01,2013-06-08 02:56:00,
2013-06-07 23:01:00,70.9,70.0,29.80,SE,131,0.0,1.0,97,0.00,,-RA,2.24,VWS V14.01,2013-06-08 03:01:00,
2013-06-07 23:16:00,71.2,70.0,29.80,West,271,0.0,1.0,96,0.00,,-RA,2.24,VWS V14.01,2013-06-08 03:16:00,
2013-06-07 23:21:00,71.2,70.0,29.80,SSW,205,0.0,1.0,96,0.00,,-RA,2.24,VWS V14.01,2013-06-08 03:21:00,
2013-06-07 23:26:00,71.2,70.0,29.80,SSW,205,0.0,0.0,96,0.00,,-RA,2.24,VWS V14.01,2013-06-08 03:26:00,
2013-06-07 23:31:00,71.2,70.0,29.80,SSW,205,0.0,0.0,96,0.00,,-RA,2.24,VWS V14.01,2013-06-08 03:31:00,
2013-06-07 23:36:00,71.1,69.9,29.81,SSW,205,0.0,0.0,96,0.00,,-RA,2.24,VWS V14.01,2013-06-08 03:36:00,
2013-06-07 23:41:00,71.0,69.8,29.81,SSW,205,0.0,0.0,96,0.00,,-RA,2.24,VWS V14.01,2013-06-08 03:41:00,
2013-06-07 23:46:00,71.0,69.8,29.81,SSW,205,0.0,0.0,96,0.00,,-RA,2.24,VWS V14.01,2013-06-08 03:46:00,
2013-06-07 23:51:00,70.8,69.6,29.81,SSW,205,0.0,0.0,96,0.00,,-RA,2.24,VWS V14.01,2013-06-08 03:51:00,
2013-06-07 23:56:00,70.7,69.5,29.80,SSW,205,0.0,0.0,96,0.00,,-RA,2.24,VWS V14.01,2013-06-08 03:56:00,